Regional Weather Roundup
Issued by NWS

Home | Current Version | Previous Version | Text Only | Print | Product List | Glossary Off
Versions: 1 2 3 4 5 6 7 8 9 10 11 12 13 14 15 16 17 18 19 20 21 22 23 24 25 26 27 28 29 30 31 32 33 34 35 36 37 38 39 40 41 42 43 44 45 46 47 48 49 50

000
ASUS43 KFSD 101802
RWRSD

WEATHER ROUNDUP FOR SOUTH DAKOTA
NATIONAL WEATHER SERVICE SIOUX FALLS SD
1200 PM CST SUN DEC 10 2017

NOTE: "FAIR" INDICATES FEW OR NO CLOUDS BELOW 12,000 FEET WITH NO
SIGNIFICANT WEATHER AND/OR OBSTRUCTIONS TO VISIBILITY.


SDZ001>005-009-010-012>017-101900-
NORTHWEST AND NORTH CENTRAL SOUTH DAKOTA

CITY           SKY/WX    TMP DP  RH WIND       PRES   REMARKS
BUFFALO          N/A     50  17  27 W23G29    30.11F
FAITH            N/A     50  17  27 W23       30.13S
MOBRIDGE       CLOUDY    45  25  45 NW10      30.05F
$$

SDZ012>016-024>037-041>051-057-063-072>074-101900-
SOUTHWEST AND SOUTH CENTRAL SOUTH DAKOTA

CITY           SKY/WX    TMP DP  RH WIND       PRES   REMARKS
RAPID CTY ARPT SUNNY     62   5  10 NW18      30.20F
PIERRE         SUNNY     51  18  27 NW21      30.10F
CUSTER         SUNNY     52  -1  11 NW9G18    30.26F
ELLSWORTH AFB  SUNNY     61   4  10 NW22G33   30.19F
PHILIP         SUNNY     58  12  16 NW23G35   30.14F
PINE RIDGE     SUNNY     48  17  29 W13G21    30.27F
SPEARFISH      FAIR      54   9  16 W18G24    30.24F
WINNER         FAIR      54  17  23 NW23G31   30.13F
$$

SDZ004>011-016>023-039-040-101900-
NORTHEAST SOUTH DAKOTA

CITY           SKY/WX    TMP DP  RH WIND       PRES   REMARKS
ABERDEEN       PTSUNNY   41  27  57 NW10      30.07S
WATERTOWN      SUNNY     35  28  75 NW12      30.03S WCI  27
BROOKINGS      SUNNY     36  27  69 NW12      30.04
SISSETON         N/A     34  25  69 NW5       30.04F WCI  30
$$

SDZ017-020-022-023-036>040-048>070-101900-
SOUTHEAST SOUTH DAKOTA

CITY           SKY/WX    TMP DP  RH WIND       PRES   REMARKS
SIOUX FALLS    MOSUNNY   39  29  67 NW13      30.07S
HURON          SUNNY     41  28  60 NW9       30.07F
CHAMBERLAIN    SUNNY     50  23  34 NW12G20   30.11F
MITCHELL       SUNNY     43  29  57 NW9       30.10F
YANKTON        SUNNY     45  25  45 NW18      30.10F
$$

ABBREVIATIONS USED IN REMARKS
   TC - TEMPERATURE IN CELSIUS
  WCI - WIND CHILL INDEX
   HX - HEAT INDEX
  VSB - VISIBILITY




USA.gov is the U.S. government's official web portal to all federal, state and local government web resources and services.